パンスターズ彗星

358P/PanSTARRS (2018)

English version
Home page
Updated on October 21, 2017

---------------------------------------------------------------------

・ プロフィール

符号 358P/2017 O3
検出日 2017年7月28日、7月1日
検出光度 24.4等、23.9等
検出者 M. Mommert and J. Agarwal (Southern Astrophysical Research (SOAR) Cassegrain telescope at Cerro Pachon, Chile), H. H. Hsieh, J. Chavez, L. Magill, and K. Silva ("Gemini South" telescope at Cerro Pachon)

・ 軌道要素

Epoch 2018 Mar. 23.0 TT = JDT 2458200.5
T 2018 Apr. 11.64328 TT                                 MPCW
q   2.4019953            (2000.0)            P               Q
n   0.17625576     Peri.  299.90065     +0.88561916     -0.42320787
a   3.1504591      Node    85.72153     +0.46398314     +0.78860055
e   0.2375729      Incl.   11.05652     +0.01995888     +0.44609896
P   5.59
From 173 observations 2012 Oct. 6-2017 Aug. 17, mean residual 0".4.

・ 光度変化

        m1 = 15.0 + 5 logΔ + 10.0

---------------------------------------------------------------------

軌道要素はM.P.E.C. 2017-Q115に掲載されたものです。
光度グラフはComet for Windowsで作成したものです。

---------------------------------------------------------------------

Copyright(C) Seiichi Yoshida (comet@aerith.net). All rights reserved.